Погода в Ване

Турция     38°30′28″N   43°22′36″E
темп.,
°C
ветер,
м/с
пор.,
м/с
влажн.,
%
обл.,
%
осадки,
мм/ч
давл.,
гПа
погр.,
м
24 января, пн
пн2400:00−14юв43643 0.0 102521
03:00−14юв43690 0.0 102517
06:00−16юв327831 0.0 102811
09:00−12юв228114 0.0 102732
12:00−5вюв127372 0.0 1019296
15:00−3ююв127973 0.0 1017174
18:00−12вюв328446 0.0 102611
21:00−12юв438134 0.0 102720
25 января, вт
вт2500:00−13юв438193 0.0 102919
03:00−14вюв338399 0.0 103117
06:00−14вюв438654 0.0 103118
09:00−10вюв33855 0.0 102943
12:00−4ю01755 0.0 1023236
15:00−4зсз11815 0.0 1021146
18:00−12вюв32895 0.0 102811
21:00−14вюв438614 0.0 103015
26 января, ср
ср2600:00−14юв3382100 0.0 103018
03:00−16юв43822 0.0 103116
06:00−17вюв43812 0.0 103017
09:00−12юв33791 0.0 102641
12:00−5вюв12680 0.0 1018220
15:00−4св01763 0.0 1015110
18:00−11вюв43791 0.0 102017
21:00−12вюв437796 0.0 101924
27 января, чт
чт2700:00−13вюв4380100 0.0 101924
03:00−13вюв4382100 0.1 101622
06:00−12вюв3387100 0.1 101421
09:00−8юв2286100 0.1 101152
12:00−6зсз2185100 0.0 1010308
15:00−5зсз2291100 0.6 1010392
18:00−8з1198100 0.6 101527
21:00−10ююв239283 2.0 102168
28 января, пт
пт2800:00−16юв338525 0.2 102817
03:00−17юв43859 0.2 103017
06:00−17вюв438415 0.0 103017
09:00−12юв328181 0.0 102858
12:00−8юз117250 0.0 1024313
15:00−7ссв117596 0.0 1022288
18:00−11вюв2190100 0.1 102612
21:00−12вюв229366 0.2 102812